[[{"header":{"parameterUnit":"m.s-1","parameterCategory":1,"la1":30.2991,"la2":30.254,"lo1":-89.0895,"lo2":-89.0444,"dy":0.0017,"dx":0.0017,"nx":28,"ny":28,"refTime":"2024-06-17T09:00:00:Z","depth":0,"parameterNumber":2,"parameterNumberName":"U-component_of_WINDS"},"data":[0,0,0,0,0,0,0,0,0,0,0,0,0,0,0,0,0,0,0,0,0,0,0,0,0,0,0,0,0,0,0,0,0,0,0,0,0,0,0,0,0,0,0,0,0,0,0,0,0,0,0,0,0,0,0,0,0,0,-5.8622,-5.8622,0,-5.8695,-5.8696,-5.8697,-5.8599,-5.8596,-5.8592,-5.8589,-5.8661,-5.8666,-5.8671,0,0,0,0,0,0,0,0,0,0,0,0,0,-5.8396,-5.84,-5.8621,-5.8622,-5.8623,-5.8695,-5.8696,-5.8697,-5.86,-5.8595,-5.8591,-5.8587,-5.866,-5.8666,-5.8672,0,0,0,0,0,0,0,0,0,0,0,0,0,-5.8484,-5.8402,-5.8621,-5.8584,-5.8581,-5.8695,-5.8696,-5.8697,-5.8601,-5.8595,-5.859,-5.8585,-5.8658,-5.8665,-5.8673,-5.8826,0,0,-5.8697,-5.87,0,0,0,0,0,0,0,0,-5.8479,-5.8492,-5.8588,-5.8586,-5.8584,-5.8633,-5.8643,-5.874,-5.8602,-5.8593,-5.8589,-5.8583,-5.8656,-5.8663,-5.8689,-5.8829,-5.8833,-5.8697,-5.8702,-5.8705,-5.8708,0,0,0,0,0,0,0,-5.8473,-5.8488,-5.865,-5.859,-5.8587,-5.8562,-5.8569,-5.8661,-5.8653,-5.8593,-5.8587,-5.8597,-5.8653,-5.8681,-5.869,-5.8834,-5.8697,-5.8704,-5.8709,-5.8712,-5.9104,-5.9109,0,0,0,0,0,0,-5.8472,-5.8484,-5.8648,-5.8653,-5.8517,-5.8571,-5.8578,-5.8622,-5.8652,-5.8651,-5.8601,-5.8592,-5.8671,-5.8681,-5.8692,-5.8871,-5.8705,-5.8713,-5.8717,-5.9098,-5.9105,-5.9111,0,0,0,0,0,0,-5.8467,-5.8487,-5.8645,-5.8567,-5.8585,-5.858,-5.863,-5.8626,-5.8654,-5.8658,-5.8655,-5.8631,-5.8667,-5.8681,-5.8793,-5.8873,-5.8716,-5.8723,-5.9091,-5.91,-5.9108,-5.9234,0,0,0,0,0,0,-5.8461,-5.8486,-5.8544,-5.8569,-5.8589,-5.8746,-5.8635,-5.8632,-5.8668,-5.8657,-5.8685,-5.8685,-5.8664,-5.8782,-5.8801,-5.8881,-5.8729,-5.9084,-5.9095,-5.9105,-5.9222,-5.9245,-5.9265,0,0,0,0,0,-5.8453,-5.8576,-5.8548,-5.8568,-5.8662,-5.8751,-5.8763,-5.8737,-5.8675,-5.8733,-5.8736,-5.8684,-5.8862,-5.8795,-5.8815,-5.8898,-5.9079,-5.9092,-5.9104,-5.9213,-5.9241,-5.9265,0,0,0,0,0,0,-5.856,-5.8579,-5.8547,-5.8682,-5.8716,-5.8734,-5.8806,-5.8768,-5.8819,-5.8806,-5.8772,-5.8779,-5.8899,-5.891,-5.8835,-5.9048,-5.896,-5.8978,-5.9035,-5.9062,-5.9083,-5.9076,-5.8736,0,0,0,0,0,-5.86,-5.8671,-5.8683,-5.8801,-5.882,-5.8811,-5.8848,-5.8826,-5.8859,-5.8873,-5.8883,-5.8917,-5.898,-5.9023,-5.9081,-5.9225,-5.9229,-5.9293,-5.9314,-5.9332,-5.9346,-5.9422,-5.945,-5.9153,-5.9153,-5.9153,0,0,-5.8681,-5.87,-5.8747,-5.8823,-5.8846,-5.892,-5.8823,-5.8905,-5.8959,-5.8885,-5.8991,-5.9001,-5.9036,-5.9165,-5.9222,-5.9178,-5.943,-5.9348,-5.9362,-5.9367,-5.9438,-5.9466,-5.9491,-5.9162,-5.9161,-5.9159,0,0,-5.8866,-5.8889,-5.8989,-5.9015,-5.9053,-5.9046,-5.9071,-5.9096,-5.91,-5.9207,-5.9153,-5.9217,-5.9328,-5.9355,-5.9383,-5.9582,-5.9536,-5.9603,-5.9713,-5.9788,-5.9811,-5.9831,-5.99,-5.9925,-5.9618,-5.9618,-5.9619,0,-5.8961,-5.9071,-5.9045,-5.9131,-5.9165,-5.9104,-5.9204,-5.9231,-5.9286,-5.9311,-5.9262,-5.9399,-5.9419,-5.9553,-5.9602,-5.9628,-5.9653,-5.9597,-5.981,-5.983,-5.9849,-5.9914,-5.994,-5.9626,-5.9625,-5.9624,-5.9624,0,-5.9186,-5.9263,-5.9339,-5.9394,-5.9438,-5.9531,-5.9518,-5.9566,-5.9542,-5.9541,-5.965,-5.9673,-5.9734,-5.9766,-5.9742,-5.9896,-5.9868,-5.9816,-5.9725,-5.9885,-5.9945,-5.997,-5.9637,-5.9634,-5.9632,-5.963,0,0,-5.9435,-5.9478,-5.9506,-5.953,-5.9569,-5.9627,-5.9718,-5.978,-5.982,-5.9862,-5.9935,-6.0032,-5.9984,-6.0016,-5.9996,-6.0062,-6.0216,-6.0001,-6.0001,-6.0037,-6.0385,-6.0421,-6.0451,-6.0188,-6.0192,-6.0196,-6.0381,0,-5.9618,-5.9775,-5.9755,-5.9905,-5.9975,-5.992,-5.9999,-6.0031,-6.0034,-6.0093,-6.0096,-6.0164,-6.0097,-6.0116,-6.018,-6.0184,-6.0284,-6.0171,-6.0253,-6.0257,-6.0242,-6.0483,-6.0521,-6.0694,-6.0405,-6.0409,-6.0412,0,-5.9851,-5.9902,-6.0059,-6.0087,-6.0116,-6.0187,-6.0242,-6.0301,-6.0336,-6.0334,-6.0372,-6.034,-6.043,-6.0343,-6.0466,-6.0389,-6.0423,-6.0431,-6.0437,-6.044,-6.0341,-6.0489,-6.0749,-6.0774,-6.0449,-6.0446,-6.0444,0,-6.0014,-6.0121,-6.0229,-6.0252,-6.0289,-6.034,-6.0357,-6.0388,-6.0427,-6.0476,-6.05,-6.056,-6.0591,-6.0637,-6.0622,-6.056,-6.0748,-6.066,-6.0746,-6.0747,-6.0784,-6.0781,-6.105,-6.0814,-6.0813,-6.0813,-6.0812,0,-6.0217,-6.0315,-6.0302,-6.0368,-6.0476,-6.0454,-6.0561,-6.0571,-6.06,-6.0666,-6.0624,-6.0687,-6.0665,-6.0727,-6.0717,-6.0819,-6.0835,-6.0834,-6.0829,-6.0835,-6.0835,-6.0853,-6.0839,-6.082,-6.0818,-6.0817,-6.0816,0,-6.0415,-6.0411,-6.0524,-6.0551,-6.056,-6.0638,-6.066,-6.0722,-6.0723,-6.0807,-6.0826,-6.0827,-6.0898,-6.0889,-6.0969,-6.0961,-6.1088,-6.1071,-6.1076,-6.107,-6.1157,-6.1147,-6.1443,-6.148,-6.1223,-6.1226,-6.1228,0,-6.0543,-6.0616,-6.0652,-6.0694,-6.0715,-6.0784,-6.0823,-6.0806,-6.0848,-6.0896,-6.0952,-6.102,-6.1072,-6.1188,-6.1195,-6.1256,-6.1237,-6.1337,-6.1246,-6.125,-6.1235,-6.1229,-6.1235,-6.1354,-6.1356,-6.1359,-6.1361,0,-6.0769,-6.0765,-6.0824,-6.0883,-6.0932,-6.0978,-6.1019,-6.1056,-6.1042,-6.1093,-6.1166,-6.1207,-6.1289,-6.1356,-6.1413,-6.143,-6.1393,-6.1391,-6.1413,-6.1418,-6.1416,-6.1415,-6.1121,-6.1382,-6.138,-6.1379,-6.1378,-6.1377,-6.0934,-6.0996,-6.1031,-6.1099,-6.1129,-6.1169,-6.1228,-6.1238,-6.1298,-6.1363,-6.135,-6.1431,-6.1466,-6.154,-6.1564,-6.1627,-6.159,-6.1624,-6.1632,-6.1639,-6.1648,-6.1411,-6.1638,-6.1637,-6.1637,-6.1636,-6.1636,0,-6.1155,-6.1176,-6.1239,-6.1298,-6.1352,-6.1315,-6.136,-6.1406,-6.1479,-6.1515,-6.1569,-6.1652,-6.1718,-6.1732,-6.1794,-6.1842,-6.1827,-6.1859,-6.1853,-6.1857,-6.1679,-6.1651,-6.187,-6.187,-6.187,-6.187,-6.187,-6.187,-6.1276,-6.138,-6.138,-6.1498,-6.1518,-6.1598,-6.1626,-6.1663,-6.1692,-6.1787,-6.1842,-6.1852,-6.1879,-6.1944,-6.2002,-6.2005,-6.2028,-6.2066,-6.2062,-6.1894,-6.187,-6.1847,-6.1821,-6.2073,-6.2073,-6.2234,-6.2236,-6.2237]},{"header":{"parameterUnit":"m.s-1","parameterCategory":1,"la1":30.2991,"la2":30.254,"lo1":-89.0895,"lo2":-89.0444,"dy":0.0017,"dx":0.0017,"nx":28,"ny":28,"refTime":"2024-06-17T09:00:00:Z","depth":0,"parameterNumber":3,"parameterNumberName":"V-component_of_WINDS"},"data":[0,0,0,0,0,0,0,0,0,0,0,0,0,0,0,0,0,0,0,0,0,0,0,0,0,0,0,0,0,0,0,0,0,0,0,0,0,0,0,0,0,0,0,0,0,0,0,0,0,0,0,0,0,0,0,0,0,0,1.6042,1.6041,0,1.6028,1.6028,1.6028,1.5928,1.5925,1.5923,1.592,1.5907,1.5908,1.591,0,0,0,0,0,0,0,0,0,0,0,0,0,1.5983,1.5985,1.6042,1.6041,1.6041,1.6028,1.6028,1.6027,1.5928,1.5925,1.5922,1.5919,1.5906,1.5908,1.5911,0,0,0,0,0,0,0,0,0,0,0,0,0,1.5993,1.5986,1.6042,1.599,1.5985,1.6028,1.6028,1.6027,1.5929,1.5925,1.5921,1.5918,1.5905,1.5908,1.5911,1.6002,0,0,1.592,1.5921,0,0,0,0,0,0,0,0,1.5993,1.5995,1.5998,1.5994,1.5988,1.5976,1.6002,1.6019,1.593,1.595,1.592,1.5916,1.5933,1.5933,1.5938,1.6001,1.6001,1.592,1.5922,1.5923,1.5924,0,0,0,0,0,0,0,1.5992,1.5995,1.6036,1.5998,1.5992,1.5968,1.5965,1.6005,1.5962,1.5948,1.5941,1.5941,1.5929,1.5936,1.5937,1.6001,1.592,1.5922,1.5924,1.5925,1.614,1.6143,0,0,0,0,0,0,1.5999,1.5996,1.6036,1.6036,1.5982,1.5972,1.5969,1.5983,1.5961,1.5955,1.5944,1.5936,1.5933,1.5934,1.5937,1.6042,1.5923,1.5926,1.5927,1.6136,1.6141,1.6145,0,0,0,0,0,0,1.5998,1.6003,1.6037,1.6014,1.6016,1.5977,1.5994,1.5985,1.5991,1.5958,1.595,1.5958,1.593,1.5932,1.5987,1.6041,1.5927,1.5929,1.6131,1.6137,1.6143,1.6255,0,0,0,0,0,0,1.5997,1.6003,1.6037,1.6015,1.6018,1.6087,1.5997,1.5988,1.5997,1.5986,1.597,1.5963,1.5927,1.5983,1.599,1.6042,1.5932,1.6126,1.6134,1.6141,1.6246,1.6264,1.6279,0,0,0,0,0,1.5995,1.6069,1.6039,1.6045,1.6059,1.6091,1.6092,1.6049,1.6001,1.6035,1.6014,1.5964,1.6034,1.599,1.5996,1.6051,1.6122,1.6132,1.614,1.6239,1.6261,1.6279,0,0,0,0,0,0,1.6097,1.6065,1.6032,1.6101,1.61,1.6074,1.6115,1.6073,1.6085,1.6075,1.6021,1.6019,1.6081,1.6071,1.6022,1.6139,1.607,1.608,1.6143,1.6163,1.6179,1.618,1.5934,0,0,0,0,0,1.6128,1.6156,1.6127,1.6191,1.6192,1.6154,1.6166,1.6134,1.613,1.6128,1.6111,1.611,1.6131,1.6147,1.6165,1.6245,1.624,1.6286,1.6303,1.6316,1.6326,1.6369,1.6389,1.6174,1.6174,1.6174,0,0,1.6192,1.6178,1.6198,1.6211,1.6206,1.6237,1.6154,1.619,1.6212,1.6134,1.6184,1.6172,1.6167,1.6235,1.6264,1.6229,1.6385,1.6328,1.6339,1.6341,1.638,1.64,1.6419,1.618,1.6179,1.6178,0,0,1.6323,1.6315,1.6368,1.6366,1.6359,1.6334,1.6348,1.6329,1.6318,1.6368,1.631,1.6337,1.6375,1.6374,1.6379,1.6514,1.6468,1.6521,1.6607,1.6649,1.6666,1.6681,1.6729,1.6747,1.6531,1.6531,1.6532,0,1.6403,1.6447,1.6401,1.6441,1.6449,1.638,1.6434,1.6434,1.6434,1.6441,1.6402,1.645,1.6442,1.6509,1.6543,1.6549,1.6562,1.6522,1.6668,1.6682,1.6695,1.674,1.6759,1.6538,1.6537,1.6537,1.6536,0,1.6545,1.6577,1.6621,1.6624,1.6636,1.6683,1.6645,1.6664,1.6632,1.6611,1.6664,1.6652,1.6667,1.6681,1.6649,1.6745,1.6723,1.6677,1.6606,1.6723,1.6765,1.6782,1.6547,1.6545,1.6543,1.6541,0,0,1.6738,1.6717,1.6734,1.6735,1.6725,1.6749,1.6794,1.6809,1.6826,1.683,1.6866,1.6902,1.6859,1.6865,1.6833,1.687,1.6979,1.6819,1.6818,1.6849,1.7085,1.7119,1.714,1.6949,1.6952,1.6955,1.7085,0,1.6865,1.6939,1.6901,1.6981,1.701,1.6947,1.6986,1.6985,1.6968,1.6991,1.6972,1.6998,1.694,1.6943,1.6977,1.6958,1.7025,1.6949,1.6983,1.6985,1.6985,1.7162,1.7198,1.7321,1.7101,1.7104,1.7106,0,1.7021,1.7032,1.7116,1.7102,1.7112,1.7148,1.716,1.7183,1.7181,1.7166,1.7174,1.7133,1.7177,1.7109,1.7169,1.7118,1.713,1.7123,1.7127,1.7128,1.7051,1.7167,1.7359,1.7378,1.7131,1.7129,1.7127,0,1.7154,1.719,1.7244,1.7247,1.7232,1.7259,1.7255,1.7249,1.7261,1.7272,1.728,1.7296,1.7305,1.7318,1.7284,1.7237,1.7349,1.7278,1.7338,1.7339,1.7363,1.7362,1.756,1.7373,1.7373,1.7372,1.7372,0,1.7298,1.7352,1.7304,1.7337,1.7396,1.7352,1.7412,1.74,1.7396,1.7427,1.7374,1.7404,1.7357,1.7383,1.7356,1.7411,1.7415,1.7404,1.7397,1.7409,1.741,1.7415,1.7405,1.7377,1.7376,1.7375,1.7374,0,1.7455,1.7425,1.7481,1.7463,1.746,1.7504,1.7489,1.752,1.7501,1.754,1.7547,1.7517,1.7544,1.7512,1.7537,1.7519,1.7593,1.7573,1.7594,1.7588,1.765,1.7644,1.7857,1.7883,1.768,1.7682,1.7684,0,1.7549,1.7588,1.7576,1.7593,1.7592,1.762,1.7633,1.7592,1.7608,1.761,1.7641,1.7664,1.7681,1.7729,1.7709,1.7728,1.7708,1.7781,1.771,1.7722,1.7708,1.7706,1.771,1.7795,1.7797,1.7799,1.7801,0,1.7718,1.7702,1.7723,1.7739,1.7757,1.7767,1.7774,1.7792,1.7749,1.777,1.7798,1.7811,1.7838,1.7862,1.7877,1.7872,1.783,1.7824,1.7839,1.7851,1.7861,1.7857,1.7632,1.7819,1.7817,1.7816,1.7815,1.7814,1.7846,1.7879,1.7876,1.7901,1.7903,1.7911,1.7939,1.7924,1.7947,1.7966,1.7941,1.7976,1.7975,1.799,1.799,1.8018,1.7986,1.8008,1.8014,1.8019,1.8029,1.7858,1.802,1.802,1.8019,1.8019,1.8019,0,1.8012,1.8008,1.8032,1.8044,1.8065,1.8025,1.8031,1.8051,1.8083,1.8085,1.8103,1.8137,1.8161,1.8144,1.8164,1.819,1.8171,1.8197,1.8194,1.8194,1.8056,1.804,1.8211,1.8211,1.8211,1.8211,1.8211,1.8211,1.8101,1.8155,1.814,1.8195,1.819,1.8224,1.8232,1.824,1.8241,1.8281,1.8301,1.8291,1.8286,1.8306,1.8327,1.8321,1.8331,1.8363,1.8351,1.8222,1.8203,1.8185,1.817,1.8366,1.8366,1.8486,1.8487,1.8488]}]]